This is the latest recevied weather packets stored in our database for station/object SM6KNE. If no packets are shown the sender has not sent any weather packets the latest 10 day(s).
| Time | Temp. | Humidity | Pressure | Rain* | Wind** | Luminosity | Snow |
|---|---|---|---|---|---|---|---|
| 1777731924 | 26.67° C | 33% | 1012.9 hPa | 0 mm | - | - | - |
| 1777731324 | 26.67° C | 33% | 1013.1 hPa | 0 mm | - | - | - |
| 1777730723 | 25.56° C | 33% | 1013.1 hPa | 0 mm | - | - | - |
| 1777727723 | 26.11° C | 33% | 1013.1 hPa | 0 mm | - | - | - |
| 1777722323 | 25° C | 39% | 1014.1 hPa | 0 mm | - | - | - |
| 1777720524 | 25° C | 40% | 1014.1 hPa | 0 mm | - | - | - |
| 1777718123 | 23.33° C | 45% | 1015.1 hPa | 0 mm | - | - | - |
| 1777716923 | 22.22° C | 47% | 1015.1 hPa | 0 mm | - | - | - |
| 1777716324 | 21.67° C | 48% | 1015.1 hPa | 0 mm | - | - | - |
| 1777710323 | 17.78° C | 55% | 1016.1 hPa | 0 mm | - | - | - |
| 1777703116 | 11.11° C | 78% | 1017.1 hPa | 0 mm | - | - | - |
| 1777700723 | 7.78° C | 81% | 1017.1 hPa | 0 mm | - | - | - |
| 1777697764 | 5.56° C | 79% | 1018.1 hPa | 0 mm | - | - | - |
| 1777696523 | 5° C | 78% | 1018.1 hPa | 0 mm | - | - | - |
| 1777693521 | 5° C | 77% | 1019.1 hPa | 0 mm | - | - | - |
| 1777689959 | 5.56° C | 74% | 1019.1 hPa | - | - | - | - |
| 1777686924 | 5.56° C | 70% | 1020.1 hPa | - | - | - | - |
| 1777682124 | 5° C | 67% | 1021.1 hPa | - | - | - | - |
| 1777679126 | 6.11° C | 64% | 1021.1 hPa | - | - | - | - |
| 1777674919 | 7.78° C | 61% | 1022.1 hPa | - | - | - | - |
| 1777673164 | 7.78° C | 60% | 1022.1 hPa | - | - | - | - |
| 1777670724 | 8.89° C | 56% | 1023.1 hPa | - | - | - | - |
| 1777668943 | 9.44° C | 54% | 1023.1 hPa | - | - | - | - |
| 1777667724 | 10° C | 53% | 1023.1 hPa | - | - | - | - |
| 1777666523 | 10.56° C | 51% | 1023.1 hPa | - | - | - | - |
* Rain latest 24 hours (hover to see other rain measurements)
** Current wind speed in m/s (hover to see current wind gust speed)